Home   Weather   Olathe   Past weeks

Flag for USA Past Weather in Olathe, Kansas, USA — Yesterday and Last 2 Weeks

Now
58 °F

Sunny.


Feels Like: 58 °F
Forecast: 38 / 69 °F
Wind: 3 mph from Northeast

Location: Johnson County Executive Airport

Current Time: Apr 23, 2017 at 10:59:44 am

Latest Report: Apr 23, 2017 at 9:53 am


Visibility: 10 mi

Pressure: 30.17 "Hg

Humidity: 41%

Dew Point: 34 °F

Location of OlatheLocation

Past Weather in Olathe — Graph

°F

Olathe Temperature Yesterday

Maximum temperature yesterday: 65 °F (at 3:53 pm)
Minimum temperature yesterday: 47 °F (at 5:53 am)
Average temperature yesterday: 55 °F

High & Low Weather Summary for the Past Weeks

 TemperatureHumidityPressure
High78 °F (Apr 15, 4:53 pm)100% (Apr 14, 4:53 am)30.33 "Hg (Apr 14, 4:53 am)
Low36 °F (Apr 11, 6:53 am)25% (Apr 22, 4:53 pm)29.56 "Hg (Apr 9, 4:53 pm)
Average62 °F70%30.00 "Hg
* Reported Apr 8 9:53 am — Apr 23 9:53 am, Olathe, Weather by CustomWeather, © 2017

Note: Actual official high and low records may vary slightly from our data, if they occured in-between our weather recording intervals... More about our weather records

Advertising

Olathe Weather History for the Previous 24 Hours

Scroll right to see more
 ConditionsComfort  
Time TempWeatherWind HumidityBarometerVisibility
9:53 am
Sun, Apr 23
58 °FSunny.3 mph41%30.17 "Hg10 mi
8:53 am55 °FSunny.3 mph51%30.17 "Hg10 mi
7:53 am48 °FSunny.6 mph59%30.18 "Hg10 mi
6:53 am41 °FSunny.6 mph76%30.16 "Hg10 mi
5:53 am44 °FClear.7 mph65%30.15 "Hg10 mi
4:53 am45 °FClear.6 mph63%30.15 "Hg10 mi
3:53 am47 °FClear.7 mph56%30.15 "Hg10 mi
2:53 am46 °FClear.5 mph58%30.16 "Hg10 mi
1:53 am50 °FClear.5 mph48%30.16 "Hg10 mi
12:53 am50 °FClear.5 mph50%30.18 "Hg10 mi
11:53 pm
Sat, Apr 22
51 °FClear.5 mph46%30.17 "Hg10 mi
10:53 pm53 °FClear.5 mph41%30.16 "Hg10 mi
9:53 pm54 °FClear.6 mph40%30.15 "Hg10 mi
8:53 pm56 °FClear.7 mph39%30.14 "Hg10 mi
7:53 pm59 °FSunny.10 mph32%30.12 "Hg10 mi
6:53 pm61 °FSunny.13 mph29%30.11 "Hg10 mi
5:53 pm63 °FSunny.21 mph26%30.09 "Hg10 mi
4:53 pm65 °FSunny.23 mph25%30.07 "Hg10 mi
3:53 pm65 °FSunny.16 mph27%30.08 "Hg10 mi
2:53 pm64 °FSunny.21 mph27%30.09 "Hg10 mi
1:53 pm62 °FSunny.15 mph31%30.11 "Hg10 mi
12:53 pm59 °FSunny.20 mph35%30.12 "Hg10 mi
11:53 am58 °FSunny.20 mph39%30.14 "Hg10 mi
10:53 am56 °FSunny.18 mph46%30.14 "Hg10 mi
Weather by CustomWeather, © 2017

See weather overviewHow to use our weather pages